Find Starlink 3909

NORAD ID: 52452 Int'l Des: 2022-049 Owner: SPXS Country: US Constellation: starlink operational
LEOCIRCULAR

实时位置

正在加载3D地球...

关于 Starlink 3909

正在加载描述...

即将过境

Passes for default location (London). Set your location on the main map for personalized predictions.

高度历史

Loading altitude history...

两行轨道根数

1 52452U 22049B 26122.90732645 -.00000645 00000-0 -22434-4 0 9990
2 52452 53.2164 185.5982 0000796 72.2776 287.8303 15.08841293220299
Epoch: May 2, 2026 • Age: 10 hours

当前状态

高度 541.5 km
速度 7.59 km/s
星下点 -5.75°S, 150.93°W
发射日期 May 6, 2022
运行时间 3.9 years
类型 internet

技术详情

分类 Payload
质量 297.00 kg
干质量 220.00 kg
总质量 297.00 kg
长度 0.20 m
直径 2.80 m
跨度 9.00 m
形状 Box + pan
制造商 SPXS
平台类型 Starlink
阶段状态 In Orbit
所有者/国家 SPXS/US

Most Searched